Weather History for 41194 - June, 2013

Change the Weather History Date:

Tuesday, June 11, 2013

  Actual Average Record
Temperature  
Mean Temperature 90 °F -  
Max Temperature 100 °F 102 °F - ()
Min Temperature 79 °F 82 °F - ()
Cooling Degree Days 24    
Growing Degree Days 40 (Base 50)    
Moisture  
Dew Point 71 °F    
Average Humidity 57    
Maximum Humidity 74    
Minimum Humidity 21    
Precipitation  
Precipitation 0.02 in 0.00 in - ()
Sea Level Pressure  
Sea Level Pressure 29.45 in    
Wind  
Wind Speed 7 mph ()    
Max Wind Speed 14 mph    
Max Gust Speed -    
Visibility 4.2 miles    
Events      
T = Trace of Precipitation, MM = Missing Value Source: Averaged Metar Reports

Daily Weather History Graph

Daily Weather History Graph

Search for Another Location

Airport or City:

Trip Planner

Search our weather history database for the weather conditions in past years. The results will help you decide how hot, cold, wet, or windy it might be!

Date:

Astronomy

Jun. 11, 2013 Rise Set
Actual Time 5:27 AM GST 7:08 PM GST
Civil Twilight 5:01 AM GST 7:34 PM GST
Nautical Twilight 4:30 AM GST 8:05 PM GST
Astronomical Twilight 3:58 AM GST 8:38 PM GST
Moon 7:38 AM GST (6/11) 9:10 PM GST (6/11)
Length of Visible Light 14h 32m
Length of Day
13h 41m
Waxing Crescent, 6% of the Moon is Illuminated
Jun 11
Waxing Crescent
Jun 16
First Quarter
Jun 23
Full
Jun 30
Last Quarter
Jul 8
New

Hourly Weather History & Observations

Time (GST) Temp. Heat Index Dew Point Humidity Pressure Visibility Wind Dir Wind Speed Gust Speed Precip Events Conditions
12:00 AM 86.0 °F 93.4 °F 73.4 °F 66% 29.47 in - SW 6.9 mph - N/A   Clear
1:00 AM 85 °F - 74 °F 62% 29.46 in 6 mi South 6.9 mph - -  
1:00 AM 84.2 °F 90.9 °F 73.4 °F 70% 29.44 in - South 6.9 mph - N/A   Clear
2:00 AM 82.4 °F 88.2 °F 73.4 °F 74% 29.44 in - South 8.1 mph - N/A   Clear
3:00 AM 82.4 °F 87.2 °F 71.6 °F 70% 29.44 in - South 8.1 mph - N/A   Clear
4:00 AM 82 °F - 67 °F 52% 29.45 in 6 mi SSE 8.1 mph - -  
4:00 AM 82.4 °F 85.4 °F 68.0 °F 62% 29.44 in - SSE 8.1 mph - N/A   Clear
5:00 AM 80.6 °F 82.7 °F 66.2 °F 61% 29.44 in - South 6.9 mph - N/A   Clear
6:00 AM 78.8 °F - 68.0 °F 69% 29.47 in 3.7 mi SW 5.8 mph - N/A   Unknown
7:00 AM 80 °F - 68 °F 59% 29.49 in 4 mi South 6.9 mph - -   Widespread Dust
7:00 AM 80.6 °F 83.2 °F 68.0 °F 65% 29.47 in 3.7 mi South 6.9 mph - N/A   Unknown
8:00 AM 82.4 °F 86.3 °F 69.8 °F 66% 29.50 in 3.7 mi SSW 5.8 mph - N/A   Scattered Clouds
9:00 AM 84.2 °F 92.3 °F 75.2 °F 74% 29.50 in 3.7 mi Variable 4.6 mph - N/A   Partly Cloudy
10:00 AM 88 °F - 73 °F 53% 29.51 in 4 mi SSW 5.8 mph - -   Widespread Dust
10:00 AM 87.8 °F 95.6 °F 73.4 °F 62% 29.50 in 4.3 mi SSW 5.8 mph - N/A   Unknown
11:00 AM 91.4 °F 96.8 °F 69.8 °F 49% 29.47 in 5.0 mi SW 8.1 mph - N/A   Unknown
12:00 PM 95.0 °F 96.0 °F 62.6 °F 34% 29.47 in - WSW 9.2 mph - N/A   Clear
1:00 PM 96 °F - 73 °F 39% 29.47 in 5 mi WNW 10.4 mph - -   Widespread Dust
1:00 PM 96.8 °F 107.3 °F 73.4 °F 47% 29.44 in 5.0 mi WNW 10.4 mph - N/A   Unknown
2:00 PM 98.6 °F 99.4 °F 60.8 °F 29% 29.44 in 5.0 mi WNW 10.4 mph - N/A   Unknown
3:00 PM 95.0 °F 98.5 °F 66.2 °F 39% 29.42 in 5.0 mi West 13.8 mph - N/A   Unknown
4:00 PM 96 °F - 60 °F 21% 29.42 in 6 mi West 11.5 mph - -  
4:00 PM 95.0 °F 95.2 °F 60.8 °F 32% 29.42 in - West 11.5 mph - N/A   Clear
5:00 PM 93.2 °F 94.1 °F 62.6 °F 36% 29.42 in - West 11.5 mph - N/A   Clear
6:00 PM 91.4 °F 98.4 °F 71.6 °F 52% 29.42 in 5.0 mi West 11.5 mph - N/A   Unknown
7:00 PM 90 °F - 75 °F 53% 29.44 in 5 mi WSW 9.2 mph - -   Widespread Dust
7:00 PM 89.6 °F 99.8 °F 75.2 °F 62% 29.42 in 5.0 mi WSW 9.2 mph - N/A   Unknown
8:00 PM 87.8 °F 97.6 °F 75.2 °F 66% 29.44 in 3.1 mi WSW 8.1 mph - N/A   Unknown
9:00 PM 87.8 °F 99.7 °F 77.0 °F 70% 29.44 in 3.1 mi WSW 9.2 mph - N/A   Unknown
9:31 PM 86.0 °F 96.9 °F 77.0 °F 74% 29.44 in 2.5 mi WSW 8.1 mph - N/A   Unknown
10:00 PM 87 °F - 76 °F 62% 29.46 in 2 mi WSW 8.1 mph - -   Widespread Dust
10:00 PM 86.0 °F 95.1 °F 75.2 °F 70% 29.44 in 2.2 mi WSW 8.1 mph - N/A   Unknown
11:00 PM 86.0 °F 95.1 °F 75.2 °F 70% 29.44 in 2.8 mi WSW 8.1 mph - N/A   Unknown